Time,TemperatureF,DewpointF,PressureIn,WindDirection,WindDirectionDegrees,WindSpeedMPH,WindSpeedGustMPH,Humidity,HourlyPrecipIn,Conditions,Clouds,dailyrainin,SoftwareType,DateUTC
2013-11-27 00:00:00,33.4,30.8,29.74,NNE,22,0.0,0.0,90,0.00,CLR,,0.00,WeatherDisplay:10.37,2013-11-27 05:00:00,
2013-11-27 00:01:00,33.4,30.8,29.75,NNE,22,0.0,0.0,90,0.00,CLR,,0.00,WeatherDisplay:10.37,2013-11-27 05:01:00,
2013-11-27 00:02:00,33.4,30.8,29.75,NNE,22,0.0,0.0,90,0.00,CLR,,0.00,WeatherDisplay:10.37,2013-11-27 05:02:00,
2013-11-27 00:07:00,33.1,30.7,29.74,NNE,22,0.0,0.0,91,0.00,CLR,,0.00,WeatherDisplay:10.37,2013-11-27 05:07:00,
2013-11-27 00:12:00,32.9,30.6,29.74,NNE,22,0.0,0.0,91,0.00,CLR,,0.00,WeatherDisplay:10.37,2013-11-27 05:12:00,
2013-11-27 00:17:00,32.7,30.4,29.74,NNE,22,0.0,0.0,91,0.00,CLR,,0.00,WeatherDisplay:10.37,2013-11-27 05:17:00,
2013-11-27 00:22:00,32.7,30.4,29.73,NNE,22,0.0,0.0,91,0.00,CLR,,0.00,WeatherDisplay:10.37,2013-11-27 05:22:00,
2013-11-27 00:27:00,32.5,30.2,29.73,NNE,22,0.0,0.0,91,0.00,CLR,,0.00,WeatherDisplay:10.37,2013-11-27 05:27:00,
2013-11-27 00:32:00,32.4,30.0,29.72,NNE,22,0.0,0.0,91,0.00,CLR,,0.00,WeatherDisplay:10.37,2013-11-27 05:32:00,
2013-11-27 00:37:00,32.2,29.8,29.72,NNE,22,0.0,0.0,91,0.00,CLR,,0.00,WeatherDisplay:10.37,2013-11-27 05:37:00,
2013-11-27 00:42:00,31.8,29.2,29.73,NNE,22,0.0,0.0,90,0.00,CLR,,0.00,WeatherDisplay:10.37,2013-11-27 05:42:00,
2013-11-27 00:47:00,31.8,29.2,29.73,NNE,22,0.0,0.0,90,0.00,CLR,,0.00,WeatherDisplay:10.37,2013-11-27 05:47:00,
2013-11-27 00:52:00,31.8,29.2,29.72,NNE,22,0.0,0.0,90,0.00,CLR,,0.00,WeatherDisplay:10.37,2013-11-27 05:52:00,
2013-11-27 00:57:00,31.8,29.2,29.72,NNE,22,0.0,0.0,90,0.00,CLR,,0.00,WeatherDisplay:10.37,2013-11-27 05:57:00,
2013-11-27 01:02:00,31.6,29.0,29.73,NNE,22,0.0,0.0,90,0.00,CLR,,0.00,WeatherDisplay:10.37,2013-11-27 06:02:00,
2013-11-27 01:07:00,31.6,29.0,29.72,NNE,22,0.0,0.0,90,0.00,CLR,,0.00,WeatherDisplay:10.37,2013-11-27 06:07:00,
2013-11-27 01:12:00,31.6,29.0,29.72,NNE,22,0.0,0.0,90,0.00,CLR,,0.00,WeatherDisplay:10.37,2013-11-27 06:12:00,
2013-11-27 01:17:00,31.6,29.0,29.72,NNE,22,0.0,0.0,90,0.00,CLR,,0.00,WeatherDisplay:10.37,2013-11-27 06:17:00,
2013-11-27 01:22:00,31.5,28.9,29.72,NNE,22,0.0,0.0,90,0.00,CLR,,0.00,WeatherDisplay:10.37,2013-11-27 06:22:00,
2013-11-27 01:27:00,31.3,28.7,29.72,NNE,22,0.0,0.0,90,0.00,CLR,,0.00,WeatherDisplay:10.37,2013-11-27 06:27:00,
2013-11-27 01:32:00,31.3,28.7,29.72,NNE,22,0.0,0.0,90,0.00,CLR,,0.00,WeatherDisplay:10.37,2013-11-27 06:32:00,
2013-11-27 01:37:00,31.3,28.7,29.73,NNE,22,0.0,0.0,90,0.00,CLR,,0.00,WeatherDisplay:10.37,2013-11-27 06:37:00,
2013-11-27 01:42:00,31.1,28.5,29.73,NNE,22,0.0,0.0,90,0.00,CLR,,0.00,WeatherDisplay:10.37,2013-11-27 06:42:00,
2013-11-27 01:47:00,30.9,28.3,29.73,NNE,22,0.0,0.0,90,0.00,CLR,,0.00,WeatherDisplay:10.37,2013-11-27 06:47:00,
2013-11-27 01:52:00,30.9,28.3,29.74,NNE,22,0.0,0.0,90,0.00,CLR,,0.00,WeatherDisplay:10.37,2013-11-27 06:52:00,
2013-11-27 01:57:00,30.9,28.3,29.74,NNE,22,0.0,0.0,90,0.00,CLR,,0.00,WeatherDisplay:10.37,2013-11-27 06:57:00,
2013-11-27 02:02:00,30.7,28.2,29.74,NNE,22,0.0,0.0,90,0.00,CLR,,0.00,WeatherDisplay:10.37,2013-11-27 07:02:00,
2013-11-27 02:07:00,30.7,28.2,29.73,NNE,22,0.0,0.0,90,0.00,CLR,,0.00,WeatherDisplay:10.37,2013-11-27 07:07:00,
2013-11-27 02:12:00,30.7,28.2,29.74,NNE,22,0.0,0.0,90,0.00,CLR,,0.00,WeatherDisplay:10.37,2013-11-27 07:12:00,
2013-11-27 02:17:00,30.6,28.0,29.74,NNE,22,0.0,0.0,90,0.00,CLR,,0.00,WeatherDisplay:10.37,2013-11-27 07:17:00,
2013-11-27 02:22:00,30.6,28.0,29.74,NNE,22,0.0,0.0,90,0.00,CLR,,0.00,WeatherDisplay:10.37,2013-11-27 07:22:00,
2013-11-27 02:27:00,30.4,27.8,29.74,NNE,22,0.0,0.0,90,0.00,CLR,,0.00,WeatherDisplay:10.37,2013-11-27 07:27:00,
2013-11-27 02:32:00,30.4,27.8,29.74,NNE,22,0.0,0.0,90,0.00,CLR,,0.00,WeatherDisplay:10.37,2013-11-27 07:32:00,
2013-11-27 02:37:00,30.2,27.6,29.73,NNE,22,0.0,0.0,90,0.00,CLR,,0.00,WeatherDisplay:10.37,2013-11-27 07:37:00,
2013-11-27 02:42:00,30.0,27.4,29.73,NNE,22,0.0,0.0,90,0.00,CLR,,0.00,WeatherDisplay:10.37,2013-11-27 07:42:00,
2013-11-27 02:47:00,30.0,27.4,29.74,NNE,22,0.0,0.0,90,0.00,CLR,,0.00,WeatherDisplay:10.37,2013-11-27 07:47:00,
2013-11-27 02:52:00,30.0,27.4,29.74,NNE,22,0.0,0.0,90,0.00,CLR,,0.00,WeatherDisplay:10.37,2013-11-27 07:52:00,
2013-11-27 02:57:00,30.0,27.4,29.74,NNE,22,0.0,0.0,90,0.00,CLR,,0.00,WeatherDisplay:10.37,2013-11-27 07:57:00,
2013-11-27 03:02:00,29.8,27.3,29.72,NNE,22,0.0,0.0,90,0.00,CLR,,0.00,WeatherDisplay:10.37,2013-11-27 08:02:00,
2013-11-27 03:07:00,29.8,27.3,29.73,NNE,22,0.0,0.0,90,0.00,CLR,,0.00,WeatherDisplay:10.37,2013-11-27 08:07:00,
2013-11-27 03:12:00,29.7,27.1,29.73,NNE,22,0.0,0.0,90,0.00,CLR,,0.00,WeatherDisplay:10.37,2013-11-27 08:12:00,
2013-11-27 03:17:00,29.5,26.9,29.73,NNE,22,0.0,0.0,90,0.00,CLR,,0.00,WeatherDisplay:10.37,2013-11-27 08:17:00,
2013-11-27 03:22:00,29.3,26.7,29.73,NNE,22,0.0,0.0,90,0.00,CLR,,0.00,WeatherDisplay:10.37,2013-11-27 08:22:00,
2013-11-27 03:27:00,29.1,26.6,29.73,NNE,22,0.0,0.0,90,0.00,CLR,,0.00,WeatherDisplay:10.37,2013-11-27 08:27:00,
2013-11-27 03:32:00,29.1,26.6,29.73,NNE,22,0.0,0.0,90,0.00,CLR,,0.00,WeatherDisplay:10.37,2013-11-27 08:32:00,
2013-11-27 03:37:00,29.1,26.6,29.74,NNE,22,0.0,0.0,90,0.00,CLR,,0.00,WeatherDisplay:10.37,2013-11-27 08:37:00,
2013-11-27 03:42:00,28.9,26.4,29.73,NNE,22,0.0,0.0,90,0.00,CLR,,0.00,WeatherDisplay:10.37,2013-11-27 08:42:00,
2013-11-27 03:47:00,28.9,26.4,29.73,NNE,22,0.0,0.0,90,0.00,CLR,,0.00,WeatherDisplay:10.37,2013-11-27 08:47:00,
2013-11-27 03:52:00,28.9,26.4,29.72,NNE,22,0.0,0.0,90,0.00,CLR,,0.00,WeatherDisplay:10.37,2013-11-27 08:52:00,
2013-11-27 03:57:00,28.9,26.4,29.73,NNE,22,0.0,0.0,90,0.00,CLR,,0.00,WeatherDisplay:10.37,2013-11-27 08:57:00,
2013-11-27 04:02:00,28.8,26.2,29.73,NNE,22,0.0,0.0,90,0.00,CLR,,0.00,WeatherDisplay:10.37,2013-11-27 09:02:00,
2013-11-27 04:07:00,28.8,26.2,29.73,NNE,22,0.0,0.0,90,0.00,CLR,,0.00,WeatherDisplay:10.37,2013-11-27 09:07:00,
2013-11-27 04:12:00,28.8,26.2,29.74,NNE,22,0.0,0.0,90,0.00,CLR,,0.00,WeatherDisplay:10.37,2013-11-27 09:12:00,
2013-11-27 04:17:00,28.6,26.0,29.74,NNE,22,0.0,0.0,90,0.00,CLR,,0.00,WeatherDisplay:10.37,2013-11-27 09:17:00,
2013-11-27 04:22:00,28.6,26.0,29.73,NNE,22,0.0,0.0,90,0.00,CLR,,0.00,WeatherDisplay:10.37,2013-11-27 09:22:00,
2013-11-27 04:27:00,28.6,26.0,29.74,NNE,22,0.0,0.0,90,0.00,CLR,,0.00,WeatherDisplay:10.37,2013-11-27 09:27:00,
2013-11-27 04:32:00,28.2,25.7,29.75,NNE,22,0.0,0.0,90,0.00,CLR,,0.00,WeatherDisplay:10.37,2013-11-27 09:32:00,
2013-11-27 04:37:00,28.2,25.7,29.74,NNE,22,0.0,0.0,90,0.00,CLR,,0.00,WeatherDisplay:10.37,2013-11-27 09:37:00,
2013-11-27 04:42:00,28.2,25.7,29.74,NNE,22,0.0,0.0,90,0.00,CLR,,0.00,WeatherDisplay:10.37,2013-11-27 09:42:00,
2013-11-27 04:47:00,28.2,25.7,29.74,NNE,22,0.0,0.0,90,0.00,CLR,,0.00,WeatherDisplay:10.37,2013-11-27 09:47:00,
2013-11-27 04:52:00,28.2,25.7,29.74,NNE,22,0.0,0.0,90,0.00,CLR,,0.00,WeatherDisplay:10.37,2013-11-27 09:52:00,
2013-11-27 04:57:00,28.2,25.7,29.75,NNE,22,0.0,0.0,90,0.00,CLR,,0.00,WeatherDisplay:10.37,2013-11-27 09:57:00,
2013-11-27 05:02:00,28.0,25.5,29.74,NNE,22,0.0,0.0,90,0.00,CLR,,0.00,WeatherDisplay:10.37,2013-11-27 10:02:00,
2013-11-27 05:07:00,28.0,25.5,29.74,NNE,22,0.0,0.0,90,0.00,CLR,,0.00,WeatherDisplay:10.37,2013-11-27 10:07:00,
2013-11-27 05:12:00,28.0,25.5,29.74,NNE,22,0.0,0.0,90,0.00,CLR,,0.00,WeatherDisplay:10.37,2013-11-27 10:12:00,
2013-11-27 05:17:00,28.0,25.5,29.74,NNE,22,0.0,0.0,90,0.00,CLR,,0.00,WeatherDisplay:10.37,2013-11-27 10:17:00,
2013-11-27 05:22:00,28.0,25.5,29.74,NNE,22,0.0,0.0,90,0.00,CLR,,0.00,WeatherDisplay:10.37,2013-11-27 10:22:00,
2013-11-27 05:27:00,28.0,25.5,29.74,NNE,22,0.0,0.0,90,0.00,CLR,,0.00,WeatherDisplay:10.37,2013-11-27 10:27:00,
2013-11-27 05:32:00,28.0,25.5,29.74,NNE,22,0.0,0.0,90,0.00,CLR,,0.00,WeatherDisplay:10.37,2013-11-27 10:32:00,
2013-11-27 05:37:00,28.0,25.5,29.74,NNE,22,0.0,0.0,90,0.00,CLR,,0.00,WeatherDisplay:10.37,2013-11-27 10:37:00,
2013-11-27 05:42:00,28.0,25.5,29.74,NNE,22,0.0,0.0,90,0.00,CLR,,0.00,WeatherDisplay:10.37,2013-11-27 10:42:00,
2013-11-27 05:47:00,28.0,25.5,29.74,NNE,22,0.0,0.0,90,0.00,CLR,,0.00,WeatherDisplay:10.37,2013-11-27 10:47:00,
2013-11-27 05:52:00,28.0,25.5,29.75,NNE,22,0.0,0.0,90,0.00,CLR,,0.00,WeatherDisplay:10.37,2013-11-27 10:52:00,
2013-11-27 05:57:00,28.0,25.5,29.75,NNE,22,0.0,0.0,90,0.00,CLR,,0.00,WeatherDisplay:10.37,2013-11-27 10:57:00,
2013-11-27 06:02:00,27.5,25.0,29.74,NNE,22,0.0,0.0,90,0.00,CLR,,0.00,WeatherDisplay:10.37,2013-11-27 11:02:00,
2013-11-27 06:07:00,27.5,25.0,29.74,NNE,22,0.0,0.0,90,0.00,CLR,,0.00,WeatherDisplay:10.37,2013-11-27 11:07:00,
2013-11-27 06:12:00,27.5,25.0,29.74,NNE,22,0.0,0.0,90,0.00,CLR,,0.00,WeatherDisplay:10.37,2013-11-27 11:12:00,
2013-11-27 06:17:00,27.5,25.0,29.75,NNE,22,0.0,0.0,90,0.00,CLR,,0.00,WeatherDisplay:10.37,2013-11-27 11:17:00,
2013-11-27 06:22:00,27.5,25.0,29.75,NNE,24,0.0,0.0,90,0.00,CLR,,0.00,WeatherDisplay:10.37,2013-11-27 11:22:00,
2013-11-27 06:27:00,27.5,25.0,29.74,NNE,24,0.0,0.0,90,0.00,CLR,,0.00,WeatherDisplay:10.37,2013-11-27 11:27:00,
2013-11-27 06:32:00,27.1,24.6,29.74,NNE,22,0.0,0.0,90,0.00,CLR,,0.00,WeatherDisplay:10.37,2013-11-27 11:32:00,
2013-11-27 06:37:00,27.1,24.6,29.74,NNE,22,0.0,0.0,90,0.00,CLR,,0.00,WeatherDisplay:10.37,2013-11-27 11:37:00,
2013-11-27 06:42:00,27.1,24.6,29.75,NNE,22,0.0,0.0,90,0.00,CLR,,0.00,WeatherDisplay:10.37,2013-11-27 11:42:00,
2013-11-27 06:47:00,27.0,24.4,29.76,NNE,22,0.0,0.0,90,0.00,CLR,,0.00,WeatherDisplay:10.37,2013-11-27 11:47:00,
2013-11-27 06:52:00,27.0,24.4,29.76,NNE,22,0.0,0.0,90,0.00,CLR,,0.00,WeatherDisplay:10.37,2013-11-27 11:52:00,
2013-11-27 06:57:00,27.0,24.4,29.76,NNE,22,0.0,0.0,90,0.00,CLR,,0.00,WeatherDisplay:10.37,2013-11-27 11:57:00,
2013-11-27 07:02:00,27.0,24.4,29.75,NNE,22,0.0,0.0,90,0.00,CLR,,0.00,WeatherDisplay:10.37,2013-11-27 12:02:00,
2013-11-27 07:07:00,27.0,24.4,29.75,NNE,22,0.0,0.0,90,0.00,CLR,,0.00,WeatherDisplay:10.37,2013-11-27 12:07:00,
2013-11-27 07:13:00,27.0,24.4,29.75,NNE,22,0.0,0.0,90,0.00,CLR,,0.00,WeatherDisplay:10.37,2013-11-27 12:13:00,
2013-11-27 07:18:00,27.0,24.4,29.76,NNE,22,0.0,0.0,90,0.00,CLR,,0.00,WeatherDisplay:10.37,2013-11-27 12:18:00,
2013-11-27 07:23:00,27.0,24.4,29.77,NNE,22,0.0,0.0,90,0.00,CLR,,0.00,WeatherDisplay:10.37,2013-11-27 12:23:00,
2013-11-27 07:28:00,27.0,24.4,29.76,NNE,22,0.0,0.0,90,0.00,CLR,,0.00,WeatherDisplay:10.37,2013-11-27 12:28:00,
2013-11-27 07:33:00,27.0,24.4,29.76,NNE,22,0.0,0.0,90,0.00,CLR,,0.00,WeatherDisplay:10.37,2013-11-27 12:33:00,
2013-11-27 07:38:00,27.0,24.4,29.76,NNE,22,0.0,0.0,90,0.00,CLR,,0.00,WeatherDisplay:10.37,2013-11-27 12:38:00,
2013-11-27 07:43:00,27.0,24.4,29.76,NNE,22,0.0,0.0,90,0.00,CLR,,0.00,WeatherDisplay:10.37,2013-11-27 12:43:00,
2013-11-27 07:48:00,27.0,24.4,29.76,NNE,22,0.0,0.0,90,0.00,CLR,,0.00,WeatherDisplay:10.37,2013-11-27 12:48:00,
2013-11-27 07:53:00,27.0,24.4,29.77,NNE,22,0.0,0.0,90,0.00,CLR,,0.00,WeatherDisplay:10.37,2013-11-27 12:53:00,
2013-11-27 07:58:00,27.0,24.4,29.77,NNE,24,0.0,0.0,90,0.00,CLR,,0.00,WeatherDisplay:10.37,2013-11-27 12:58:00,
2013-11-27 08:03:00,27.0,24.4,29.77,NNE,24,0.0,0.0,90,0.00,CLR,,0.00,WeatherDisplay:10.37,2013-11-27 13:03:00,
2013-11-27 08:08:00,27.0,24.4,29.77,NNE,24,0.0,0.0,90,0.00,CLR,,0.00,WeatherDisplay:10.37,2013-11-27 13:08:00,
2013-11-27 08:13:00,27.0,24.4,29.77,NNE,24,0.0,0.0,90,0.00,CLR,,0.00,WeatherDisplay:10.37,2013-11-27 13:13:00,
2013-11-27 08:18:00,27.0,24.4,29.77,NNE,22,0.0,0.0,90,0.00,CLR,,0.00,WeatherDisplay:10.37,2013-11-27 13:18:00,
2013-11-27 08:23:00,27.0,24.4,29.77,NNE,22,0.0,0.0,90,0.00,CLR,,0.00,WeatherDisplay:10.37,2013-11-27 13:23:00,
2013-11-27 08:28:00,27.3,24.5,29.77,NNE,22,0.0,0.0,89,0.00,CLR,,0.00,WeatherDisplay:10.37,2013-11-27 13:28:00,
2013-11-27 08:33:00,27.3,24.5,29.77,NNE,22,0.0,0.0,89,0.00,CLR,,0.00,WeatherDisplay:10.37,2013-11-27 13:33:00,
2013-11-27 08:38:00,27.3,24.5,29.77,NNE,22,0.0,0.0,89,0.00,CLR,,0.00,WeatherDisplay:10.37,2013-11-27 13:38:00,
2013-11-27 08:43:00,27.3,24.5,29.77,NNE,22,0.0,0.0,89,0.00,CLR,,0.00,WeatherDisplay:10.37,2013-11-27 13:43:00,
2013-11-27 08:48:00,27.3,24.5,29.78,NNE,22,0.0,0.0,89,0.00,CLR,,0.00,WeatherDisplay:10.37,2013-11-27 13:48:00,
2013-11-27 08:53:00,27.5,24.7,29.77,South,180,0.0,0.0,89,0.00,CLR,,0.00,WeatherDisplay:10.37,2013-11-27 13:53:00,
2013-11-27 08:58:00,27.5,24.7,29.77,South,180,0.0,0.0,89,0.00,CLR,,0.00,WeatherDisplay:10.37,2013-11-27 13:58:00,
2013-11-27 09:03:00,27.5,24.7,29.78,South,180,0.0,0.0,89,0.00,CLR,,0.00,WeatherDisplay:10.37,2013-11-27 14:03:00,
2013-11-27 09:08:00,27.5,24.7,29.77,South,180,0.0,0.0,89,0.00,CLR,,0.00,WeatherDisplay:10.37,2013-11-27 14:08:00,
2013-11-27 09:13:00,27.3,24.5,29.78,NNE,22,0.0,0.0,89,0.00,CLR,,0.00,WeatherDisplay:10.37,2013-11-27 14:13:00,
2013-11-27 09:18:00,27.5,24.7,29.79,NNE,22,0.0,0.0,89,0.00,CLR,,0.00,WeatherDisplay:10.37,2013-11-27 14:18:00,
2013-11-27 09:23:00,27.5,24.7,29.79,NNE,22,0.0,0.0,89,0.00,CLR,,0.00,WeatherDisplay:10.37,2013-11-27 14:23:00,
2013-11-27 09:28:00,27.5,24.7,29.79,NNE,22,0.0,0.0,89,0.00,CLR,,0.00,WeatherDisplay:10.37,2013-11-27 14:28:00,
2013-11-27 09:33:00,27.3,24.5,29.79,NNE,22,0.0,0.0,89,0.00,CLR,,0.00,WeatherDisplay:10.37,2013-11-27 14:33:00,
2013-11-27 09:38:00,27.3,24.5,29.78,NNE,22,0.0,0.0,89,0.00,CLR,,0.00,WeatherDisplay:10.37,2013-11-27 14:38:00,
2013-11-27 09:43:00,27.3,24.5,29.78,NNE,22,0.0,0.0,89,0.00,CLR,,0.00,WeatherDisplay:10.37,2013-11-27 14:43:00,
2013-11-27 09:48:00,27.3,24.5,29.78,NNE,24,0.0,0.0,89,0.00,CLR,,0.00,WeatherDisplay:10.37,2013-11-27 14:48:00,
2013-11-27 09:53:00,27.3,24.5,29.78,NNE,24,0.0,0.0,89,0.00,CLR,,0.00,WeatherDisplay:10.37,2013-11-27 14:53:00,
2013-11-27 09:58:00,27.5,24.7,29.78,NNE,22,0.0,0.0,89,0.00,CLR,,0.00,WeatherDisplay:10.37,2013-11-27 14:58:00,
2013-11-27 10:03:00,27.5,24.7,29.78,NNE,22,0.0,0.0,89,0.00,CLR,,0.00,WeatherDisplay:10.37,2013-11-27 15:03:00,
2013-11-27 10:08:00,27.7,24.9,29.78,NNE,22,0.0,0.0,89,0.00,CLR,,0.00,WeatherDisplay:10.37,2013-11-27 15:08:00,
2013-11-27 10:13:00,27.7,24.9,29.78,NNE,22,0.0,0.0,89,0.00,CLR,,0.00,WeatherDisplay:10.37,2013-11-27 15:13:00,
2013-11-27 10:18:00,27.5,24.7,29.78,NNE,22,0.0,0.0,89,0.00,CLR,,0.00,WeatherDisplay:10.37,2013-11-27 15:18:00,
2013-11-27 10:23:00,27.5,24.7,29.77,NNE,22,0.0,0.0,89,0.00,CLR,,0.00,WeatherDisplay:10.37,2013-11-27 15:23:00,
2013-11-27 10:28:00,27.5,24.7,29.77,NNE,22,0.0,0.0,89,0.00,CLR,,0.00,WeatherDisplay:10.37,2013-11-27 15:28:00,
2013-11-27 10:33:00,27.5,24.4,29.77,NNE,22,0.0,0.0,88,0.00,CLR,,0.00,WeatherDisplay:10.37,2013-11-27 15:33:00,
2013-11-27 10:38:00,27.5,24.4,29.77,NNE,22,0.0,0.0,88,0.00,CLR,,0.00,WeatherDisplay:10.37,2013-11-27 15:38:00,
2013-11-27 10:43:00,27.5,24.4,29.77,NNE,22,0.0,0.0,88,0.00,CLR,,0.00,WeatherDisplay:10.37,2013-11-27 15:43:00,
2013-11-27 10:48:00,27.5,24.4,29.77,NNE,22,0.0,0.0,88,0.00,CLR,,0.00,WeatherDisplay:10.37,2013-11-27 15:48:00,
2013-11-27 10:53:00,27.5,24.4,29.77,NNE,24,0.0,0.0,88,0.00,CLR,,0.00,WeatherDisplay:10.37,2013-11-27 15:53:00,
2013-11-27 10:58:00,27.5,24.4,29.77,NNE,24,0.0,0.0,88,0.00,CLR,,0.00,WeatherDisplay:10.37,2013-11-27 15:58:00,
2013-11-27 11:03:00,27.5,24.4,29.77,NNE,24,0.0,0.0,88,0.00,CLR,,0.00,WeatherDisplay:10.37,2013-11-27 16:03:00,
2013-11-27 11:08:00,27.5,24.4,29.77,NNE,24,0.0,0.0,88,0.00,CLR,,0.00,WeatherDisplay:10.37,2013-11-27 16:08:00,
2013-11-27 11:13:00,27.5,24.4,29.77,NNE,24,0.0,0.0,88,0.00,CLR,,0.00,WeatherDisplay:10.37,2013-11-27 16:13:00,
2013-11-27 11:18:00,27.5,24.4,29.77,NNE,24,0.0,0.0,88,0.00,CLR,,0.00,WeatherDisplay:10.37,2013-11-27 16:18:00,
2013-11-27 11:23:00,25.9,22.5,29.77,NNE,22,0.0,0.0,87,0.00,CLR,,0.00,WeatherDisplay:10.37,2013-11-27 16:23:00,
2013-11-27 11:28:00,25.9,22.5,29.77,NNE,22,0.0,0.0,87,0.00,CLR,,0.00,WeatherDisplay:10.37,2013-11-27 16:28:00,
2013-11-27 11:33:00,25.9,22.5,29.77,NNE,22,0.0,0.0,87,0.00,CLR,,0.00,WeatherDisplay:10.37,2013-11-27 16:33:00,
2013-11-27 11:38:00,25.9,22.5,29.78,NNE,22,0.0,0.0,87,0.00,CLR,,0.00,WeatherDisplay:10.37,2013-11-27 16:38:00,
2013-11-27 11:43:00,25.5,22.2,29.77,NNE,22,0.0,0.0,87,0.00,CLR,,0.00,WeatherDisplay:10.37,2013-11-27 16:43:00,
2013-11-27 11:48:00,25.3,22.0,29.78,NNE,22,0.0,0.0,87,0.00,CLR,,0.00,WeatherDisplay:10.37,2013-11-27 16:48:00,
2013-11-27 11:53:00,25.3,22.0,29.78,NNE,22,0.0,0.0,87,0.00,CLR,,0.00,WeatherDisplay:10.37,2013-11-27 16:53:00,
2013-11-27 11:58:00,25.3,22.0,29.79,NNE,22,0.0,0.0,87,0.00,CLR,,0.00,WeatherDisplay:10.37,2013-11-27 16:58:00,
2013-11-27 12:03:00,25.3,22.0,29.78,NNE,24,0.0,0.0,87,0.00,CLR,,0.00,WeatherDisplay:10.37,2013-11-27 17:03:00,
2013-11-27 12:08:00,25.3,22.0,29.79,NNE,24,0.0,0.0,87,0.00,CLR,,0.00,WeatherDisplay:10.37,2013-11-27 17:08:00,
2013-11-27 12:13:00,25.0,21.4,29.79,NNE,24,0.0,0.0,86,0.00,CLR,,0.00,WeatherDisplay:10.37,2013-11-27 17:13:00,
2013-11-27 12:18:00,25.3,21.7,29.79,NNE,22,0.0,0.0,86,0.00,CLR,,0.00,WeatherDisplay:10.37,2013-11-27 17:18:00,
2013-11-27 12:23:00,25.3,21.7,29.79,NNE,22,0.0,0.0,86,0.00,CLR,,0.00,WeatherDisplay:10.37,2013-11-27 17:23:00,
2013-11-27 12:28:00,25.3,21.7,29.79,NNE,22,0.0,0.0,86,0.00,CLR,,0.00,WeatherDisplay:10.37,2013-11-27 17:28:00,
2013-11-27 12:33:00,25.0,21.1,29.79,NNE,22,0.0,0.0,85,0.00,CLR,,0.00,WeatherDisplay:10.37,2013-11-27 17:33:00,
2013-11-27 12:38:00,24.6,20.8,29.80,NNE,22,0.0,0.0,85,0.00,CLR,,0.00,WeatherDisplay:10.37,2013-11-27 17:38:00,
2013-11-27 12:43:00,24.6,20.8,29.80,NNE,22,0.0,0.0,85,0.00,CLR,,0.00,WeatherDisplay:10.37,2013-11-27 17:43:00,
2013-11-27 12:48:00,25.0,21.1,29.80,NNE,22,0.0,0.0,85,0.00,CLR,,0.00,WeatherDisplay:10.37,2013-11-27 17:48:00,
2013-11-27 12:53:00,25.0,20.8,29.80,NNE,22,0.0,0.0,84,0.00,CLR,,0.00,WeatherDisplay:10.37,2013-11-27 17:53:00,
2013-11-27 12:58:00,25.0,20.8,29.80,NNE,22,0.0,0.0,84,0.00,CLR,,0.00,WeatherDisplay:10.37,2013-11-27 17:58:00,
2013-11-27 13:03:00,25.0,20.8,29.80,NNE,22,0.0,0.0,84,0.00,CLR,,0.00,WeatherDisplay:10.37,2013-11-27 18:03:00,
2013-11-27 13:08:00,25.0,20.8,29.80,NNE,22,0.0,0.0,84,0.00,CLR,,0.00,WeatherDisplay:10.37,2013-11-27 18:08:00,
2013-11-27 13:13:00,25.0,20.8,29.80,NNE,24,0.0,0.0,84,0.00,CLR,,0.00,WeatherDisplay:10.37,2013-11-27 18:13:00,
2013-11-27 13:18:00,25.0,20.8,29.80,NNE,24,0.0,0.0,84,0.00,CLR,,0.00,WeatherDisplay:10.37,2013-11-27 18:18:00,
2013-11-27 13:23:00,25.0,20.8,29.81,NNE,24,0.0,0.0,84,0.00,CLR,,0.00,WeatherDisplay:10.37,2013-11-27 18:23:00,
2013-11-27 13:28:00,25.0,20.8,29.81,NNE,24,0.0,0.0,84,0.00,CLR,,0.00,WeatherDisplay:10.37,2013-11-27 18:28:00,
2013-11-27 13:33:00,25.0,20.8,29.81,NNE,24,0.0,0.0,84,0.00,CLR,,0.00,WeatherDisplay:10.37,2013-11-27 18:33:00,
2013-11-27 13:38:00,25.0,20.8,29.82,NNE,24,0.0,0.0,84,0.00,CLR,,0.00,WeatherDisplay:10.37,2013-11-27 18:38:00,
2013-11-27 13:43:00,25.0,20.8,29.82,NNE,24,0.0,0.0,84,0.00,CLR,,0.00,WeatherDisplay:10.37,2013-11-27 18:43:00,
2013-11-27 13:48:00,25.0,20.8,29.82,NNE,24,0.0,0.0,84,0.00,CLR,,0.00,WeatherDisplay:10.37,2013-11-27 18:48:00,
2013-11-27 13:53:00,25.0,20.8,29.82,NNE,24,0.0,0.0,84,0.00,CLR,,0.00,WeatherDisplay:10.37,2013-11-27 18:53:00,
2013-11-27 13:56:00,25.0,20.8,29.82,NNE,24,0.0,0.0,84,0.00,CLR,,0.00,WeatherDisplay:10.37,2013-11-27 18:56:00,
2013-11-27 14:01:00,25.0,20.8,29.83,NNE,24,0.0,0.0,84,0.00,CLR,,0.00,WeatherDisplay:10.37,2013-11-27 19:01:00,
2013-11-27 14:06:00,25.0,20.8,29.83,NNE,24,0.0,0.0,84,0.00,CLR,,0.00,WeatherDisplay:10.37,2013-11-27 19:06:00,
2013-11-27 14:11:00,25.0,20.8,29.83,NNE,24,0.0,0.0,84,0.00,CLR,,0.00,WeatherDisplay:10.37,2013-11-27 19:11:00,
2013-11-27 14:16:00,25.0,20.8,29.83,NNE,24,0.0,0.0,84,0.00,CLR,,0.00,WeatherDisplay:10.37,2013-11-27 19:16:00,
2013-11-27 14:21:00,25.0,20.8,29.83,NNE,24,0.0,0.0,84,0.00,CLR,,0.00,WeatherDisplay:10.37,2013-11-27 19:21:00,
2013-11-27 14:26:00,23.7,19.3,29.84,NNE,22,0.0,0.0,83,0.00,CLR,,0.00,WeatherDisplay:10.37,2013-11-27 19:26:00,
2013-11-27 14:31:00,23.4,19.0,29.84,NNE,22,0.0,0.0,83,0.00,CLR,,0.00,WeatherDisplay:10.37,2013-11-27 19:31:00,
2013-11-27 14:36:00,23.4,19.0,29.84,NNE,22,0.0,0.0,83,0.00,CLR,,0.00,WeatherDisplay:10.37,2013-11-27 19:36:00,
2013-11-27 14:41:00,23.2,18.8,29.85,NNE,22,0.0,0.0,83,0.00,CLR,,0.00,WeatherDisplay:10.37,2013-11-27 19:41:00,
2013-11-27 14:46:00,23.2,18.8,29.85,NNE,22,0.0,0.0,83,0.00,CLR,,0.00,WeatherDisplay:10.37,2013-11-27 19:46:00,
2013-11-27 14:51:00,23.2,18.8,29.85,NNE,22,0.0,0.0,83,0.00,CLR,,0.00,WeatherDisplay:10.37,2013-11-27 19:51:00,
2013-11-27 14:56:00,23.2,18.8,29.86,NNE,22,0.0,0.0,83,0.00,CLR,,0.00,WeatherDisplay:10.37,2013-11-27 19:56:00,
2013-11-27 15:01:00,23.2,18.8,29.86,NNE,24,0.0,0.0,83,0.00,CLR,,0.00,WeatherDisplay:10.37,2013-11-27 20:01:00,
2013-11-27 15:06:00,23.2,18.8,29.85,NNE,24,0.0,0.0,83,0.00,CLR,,0.00,WeatherDisplay:10.37,2013-11-27 20:06:00,
2013-11-27 15:11:00,23.2,18.8,29.86,NNE,24,0.0,0.0,83,0.00,CLR,,0.00,WeatherDisplay:10.37,2013-11-27 20:11:00,
2013-11-27 15:16:00,23.2,18.8,29.86,NNE,24,0.0,0.0,83,0.00,CLR,,0.00,WeatherDisplay:10.37,2013-11-27 20:16:00,
2013-11-27 15:21:00,22.1,18.0,29.87,NNE,24,0.0,0.0,84,0.00,CLR,,0.00,WeatherDisplay:10.37,2013-11-27 20:21:00,
2013-11-27 15:26:00,22.1,18.0,29.87,NNE,24,0.0,0.0,84,0.00,CLR,,0.00,WeatherDisplay:10.37,2013-11-27 20:26:00,
2013-11-27 15:31:00,22.1,18.0,29.87,NNE,22,0.0,0.0,84,0.00,CLR,,0.00,WeatherDisplay:10.37,2013-11-27 20:31:00,
2013-11-27 15:36:00,22.1,17.7,29.88,NNE,22,0.0,0.0,83,0.00,CLR,,0.00,WeatherDisplay:10.37,2013-11-27 20:36:00,
2013-11-27 15:41:00,22.1,17.7,29.88,NNE,22,0.0,0.0,83,0.00,CLR,,0.00,WeatherDisplay:10.37,2013-11-27 20:41:00,
2013-11-27 15:46:00,22.1,17.7,29.88,NNE,22,0.0,0.0,83,0.00,CLR,,0.00,WeatherDisplay:10.37,2013-11-27 20:46:00,
2013-11-27 15:51:00,21.9,17.8,29.88,NNE,22,0.0,0.0,84,0.00,CLR,,0.00,WeatherDisplay:10.37,2013-11-27 20:51:00,
2013-11-27 15:56:00,22.1,18.0,29.89,NNE,22,0.0,0.0,84,0.00,CLR,,0.00,WeatherDisplay:10.37,2013-11-27 20:56:00,
2013-11-27 16:01:00,22.1,18.0,29.89,NNE,22,0.0,0.0,84,0.00,CLR,,0.00,WeatherDisplay:10.37,2013-11-27 21:01:00,
2013-11-27 16:06:00,22.1,18.0,29.90,NNE,22,0.0,0.0,84,0.00,CLR,,0.00,WeatherDisplay:10.37,2013-11-27 21:06:00,
2013-11-27 16:11:00,22.1,18.0,29.90,NNE,22,0.0,0.0,84,0.00,CLR,,0.00,WeatherDisplay:10.37,2013-11-27 21:11:00,
2013-11-27 16:16:00,22.1,18.0,29.91,NNE,22,0.0,0.0,84,0.00,CLR,,0.00,WeatherDisplay:10.37,2013-11-27 21:16:00,
2013-11-27 16:21:00,22.1,18.0,29.91,NNE,24,0.0,0.0,84,0.00,CLR,,0.00,WeatherDisplay:10.37,2013-11-27 21:21:00,
2013-11-27 16:26:00,22.1,18.0,29.91,NNE,24,0.0,0.0,84,0.00,CLR,,0.00,WeatherDisplay:10.37,2013-11-27 21:26:00,
2013-11-27 16:31:00,22.1,18.0,29.92,NNE,24,0.0,0.0,84,0.00,CLR,,0.00,WeatherDisplay:10.37,2013-11-27 21:31:00,
2013-11-27 16:36:00,22.1,18.0,29.92,NNE,24,0.0,0.0,84,0.00,CLR,,0.00,WeatherDisplay:10.37,2013-11-27 21:36:00,
2013-11-27 16:41:00,22.1,18.0,29.93,NNE,24,0.0,0.0,84,0.00,CLR,,0.00,WeatherDisplay:10.37,2013-11-27 21:41:00,
2013-11-27 16:46:00,22.1,18.0,29.93,NNE,24,0.0,0.0,84,0.00,CLR,,0.00,WeatherDisplay:10.37,2013-11-27 21:46:00,
2013-11-27 16:51:00,22.1,18.0,29.93,NNE,24,0.0,0.0,84,0.00,CLR,,0.00,WeatherDisplay:10.37,2013-11-27 21:51:00,
2013-11-27 16:56:00,22.1,18.0,29.94,NNE,24,0.0,0.0,84,0.00,CLR,,0.00,WeatherDisplay:10.37,2013-11-27 21:56:00,
2013-11-27 17:01:00,22.1,18.0,29.94,NNE,24,0.0,0.0,84,0.00,CLR,,0.00,WeatherDisplay:10.37,2013-11-27 22:01:00,
2013-11-27 17:06:00,22.1,18.0,29.94,NNE,24,0.0,0.0,84,0.00,CLR,,0.00,WeatherDisplay:10.37,2013-11-27 22:06:00,
2013-11-27 17:11:00,22.1,18.0,29.95,NNE,24,0.0,0.0,84,0.00,CLR,,0.00,WeatherDisplay:10.37,2013-11-27 22:11:00,
2013-11-27 17:16:00,20.8,16.8,29.95,NNE,24,0.0,0.0,84,0.00,CLR,,0.00,WeatherDisplay:10.37,2013-11-27 22:16:00,
2013-11-27 17:21:00,20.8,16.8,29.95,NNE,24,0.0,0.0,84,0.00,CLR,,0.00,WeatherDisplay:10.37,2013-11-27 22:21:00,
2013-11-27 17:26:00,20.8,16.8,29.95,NNE,24,0.0,0.0,84,0.00,CLR,,0.00,WeatherDisplay:10.37,2013-11-27 22:26:00,
2013-11-27 17:31:00,20.8,16.8,29.96,NNE,24,0.0,0.0,84,0.00,CLR,,0.00,WeatherDisplay:10.37,2013-11-27 22:31:00,
2013-11-27 17:36:00,20.8,16.8,29.96,NNE,24,0.0,0.0,84,0.00,CLR,,0.00,WeatherDisplay:10.37,2013-11-27 22:36:00,
2013-11-27 17:41:00,20.8,16.8,29.96,NNE,24,0.0,0.0,84,0.00,CLR,,0.00,WeatherDisplay:10.37,2013-11-27 22:41:00,
2013-11-27 17:46:00,20.8,16.8,29.97,NNE,24,0.0,0.0,84,0.00,CLR,,0.00,WeatherDisplay:10.37,2013-11-27 22:46:00,
2013-11-27 17:51:00,20.8,16.8,29.97,NNE,24,0.0,0.0,84,0.00,CLR,,0.00,WeatherDisplay:10.37,2013-11-27 22:51:00,
2013-11-27 17:56:00,20.8,16.8,29.97,NNE,24,0.0,0.0,84,0.00,CLR,,0.00,WeatherDisplay:10.37,2013-11-27 22:56:00,
2013-11-27 18:01:00,20.8,16.8,29.97,NNE,24,0.0,0.0,84,0.00,CLR,,0.00,WeatherDisplay:10.37,2013-11-27 23:01:00,
2013-11-27 18:06:00,20.8,16.8,29.98,NNE,24,0.0,0.0,84,0.00,CLR,,0.00,WeatherDisplay:10.37,2013-11-27 23:06:00,
2013-11-27 18:11:00,20.8,16.8,29.98,NNE,24,0.0,0.0,84,0.00,CLR,,0.00,WeatherDisplay:10.37,2013-11-27 23:11:00,
2013-11-27 18:16:00,20.8,16.8,29.98,NNE,24,0.0,0.0,84,0.00,CLR,,0.00,WeatherDisplay:10.37,2013-11-27 23:16:00,
2013-11-27 18:21:00,20.8,16.8,29.98,NNE,24,0.0,0.0,84,0.00,CLR,,0.00,WeatherDisplay:10.37,2013-11-27 23:21:00,
2013-11-27 18:26:00,20.8,16.8,29.98,NNE,24,0.0,0.0,84,0.00,CLR,,0.00,WeatherDisplay:10.37,2013-11-27 23:26:00,
2013-11-27 18:31:00,20.8,16.8,29.99,NNE,24,0.0,0.0,84,0.00,CLR,,0.00,WeatherDisplay:10.37,2013-11-27 23:31:00,
2013-11-27 18:36:00,20.8,16.8,29.99,NNE,24,0.0,0.0,84,0.00,CLR,,0.00,WeatherDisplay:10.37,2013-11-27 23:36:00,
2013-11-27 18:41:00,20.8,16.8,30.00,NNE,24,0.0,0.0,84,0.00,CLR,,0.00,WeatherDisplay:10.37,2013-11-27 23:41:00,
2013-11-27 18:46:00,20.8,16.8,30.00,NNE,24,0.0,0.0,84,0.00,CLR,,0.00,WeatherDisplay:10.37,2013-11-27 23:46:00,
2013-11-27 18:51:00,20.8,16.8,30.01,NNE,24,0.0,0.0,84,0.00,CLR,,0.00,WeatherDisplay:10.37,2013-11-27 23:51:00,
2013-11-27 18:56:00,20.8,16.8,30.01,NNE,24,0.0,0.0,84,0.00,CLR,,0.00,WeatherDisplay:10.37,2013-11-27 23:56:00,
2013-11-27 19:01:00,20.8,16.8,30.01,NNE,24,0.0,0.0,84,0.00,CLR,,0.00,WeatherDisplay:10.37,2013-11-28 00:01:00,
2013-11-27 19:06:00,20.8,16.8,30.01,NNE,24,0.0,0.0,84,0.00,CLR,,0.00,WeatherDisplay:10.37,2013-11-28 00:06:00,
2013-11-27 19:11:00,20.8,16.8,30.02,NNE,24,0.0,0.0,84,0.00,CLR,,0.00,WeatherDisplay:10.37,2013-11-28 00:11:00,
2013-11-27 19:16:00,20.8,16.8,30.02,NNE,24,0.0,0.0,84,0.00,CLR,,0.00,WeatherDisplay:10.37,2013-11-28 00:16:00,
2013-11-27 19:21:00,20.8,16.8,30.02,NNE,24,0.0,0.0,84,0.00,CLR,,0.00,WeatherDisplay:10.37,2013-11-28 00:21:00,
2013-11-27 19:26:00,20.8,16.8,30.02,NNE,24,0.0,0.0,84,0.00,CLR,,0.00,WeatherDisplay:10.37,2013-11-28 00:26:00,
2013-11-27 19:31:00,20.8,16.8,30.03,NNE,24,0.0,0.0,84,0.00,CLR,,0.00,WeatherDisplay:10.37,2013-11-28 00:31:00,
2013-11-27 19:36:00,20.8,16.8,30.03,NNE,24,0.0,0.0,84,0.00,CLR,,0.00,WeatherDisplay:10.37,2013-11-28 00:36:00,
2013-11-27 19:41:00,20.8,16.8,30.03,NNE,24,0.0,0.0,84,0.00,CLR,,0.00,WeatherDisplay:10.37,2013-11-28 00:41:00,
2013-11-27 19:46:00,20.8,16.8,30.03,NNE,24,0.0,0.0,84,0.00,CLR,,0.00,WeatherDisplay:10.37,2013-11-28 00:46:00,
2013-11-27 19:51:00,20.8,16.8,30.04,NNE,24,0.0,0.0,84,0.00,CLR,,0.00,WeatherDisplay:10.37,2013-11-28 00:51:00,
2013-11-27 19:56:00,20.8,16.8,30.04,NNE,24,0.0,0.0,84,0.00,CLR,,0.00,WeatherDisplay:10.37,2013-11-28 00:56:00,
2013-11-27 20:01:00,20.8,16.8,30.03,NNE,24,0.0,0.0,84,0.00,CLR,,0.00,WeatherDisplay:10.37,2013-11-28 01:01:00,
2013-11-27 20:06:00,20.8,16.8,30.04,NNE,24,0.0,0.0,84,0.00,CLR,,0.00,WeatherDisplay:10.37,2013-11-28 01:06:00,
2013-11-27 20:11:00,20.8,16.8,30.04,NNE,24,0.0,0.0,84,0.00,CLR,,0.00,WeatherDisplay:10.37,2013-11-28 01:11:00,
2013-11-27 20:16:00,20.8,16.8,30.04,NNE,24,0.0,0.0,84,0.00,CLR,,0.00,WeatherDisplay:10.37,2013-11-28 01:16:00,
2013-11-27 20:21:00,20.8,16.8,30.04,NNE,24,0.0,0.0,84,0.00,CLR,,0.00,WeatherDisplay:10.37,2013-11-28 01:21:00,
2013-11-27 20:26:00,20.8,16.8,30.04,NNE,24,0.0,0.0,84,0.00,CLR,,0.00,WeatherDisplay:10.37,2013-11-28 01:26:00,
2013-11-27 20:31:00,20.8,16.8,30.05,NNE,24,0.0,0.0,84,0.00,CLR,,0.00,WeatherDisplay:10.37,2013-11-28 01:31:00,
2013-11-27 20:36:00,20.8,16.8,30.05,NNE,24,0.0,0.0,84,0.00,CLR,,0.00,WeatherDisplay:10.37,2013-11-28 01:36:00,
2013-11-27 20:41:00,20.8,16.8,30.06,NNE,24,0.0,0.0,84,0.00,CLR,,0.00,WeatherDisplay:10.37,2013-11-28 01:41:00,
2013-11-27 20:46:00,20.8,16.8,30.06,NNE,24,0.0,0.0,84,0.00,CLR,,0.00,WeatherDisplay:10.37,2013-11-28 01:46:00,
2013-11-27 20:51:00,20.8,16.8,30.06,NNE,24,0.0,0.0,84,0.00,CLR,,0.00,WeatherDisplay:10.37,2013-11-28 01:51:00,
2013-11-27 20:56:00,20.8,16.8,30.06,NNE,24,0.0,0.0,84,0.00,CLR,,0.00,WeatherDisplay:10.37,2013-11-28 01:56:00,
2013-11-27 21:01:00,19.0,14.4,30.07,NNE,24,0.0,0.0,82,0.00,CLR,,0.00,WeatherDisplay:10.37,2013-11-28 02:01:00,
2013-11-27 21:06:00,19.0,14.4,30.07,NNE,22,0.0,0.0,82,0.00,CLR,,0.00,WeatherDisplay:10.37,2013-11-28 02:06:00,
2013-11-27 21:11:00,19.0,14.4,30.07,NNE,22,0.0,0.0,82,0.00,CLR,,0.00,WeatherDisplay:10.37,2013-11-28 02:11:00,
2013-11-27 21:16:00,19.0,14.4,30.07,NNE,24,0.0,0.0,82,0.00,CLR,,0.00,WeatherDisplay:10.37,2013-11-28 02:16:00,
2013-11-27 21:21:00,19.0,14.4,30.07,NNE,24,0.0,0.0,82,0.00,CLR,,0.00,WeatherDisplay:10.37,2013-11-28 02:21:00,
2013-11-27 21:26:00,19.2,14.3,30.07,NNE,24,0.0,0.0,81,0.00,CLR,,0.00,WeatherDisplay:10.37,2013-11-28 02:26:00,
2013-11-27 21:31:00,19.2,14.3,30.08,NNE,24,0.0,0.0,81,0.00,CLR,,0.00,WeatherDisplay:10.37,2013-11-28 02:31:00,
2013-11-27 21:36:00,19.2,14.3,30.08,NNE,24,0.0,0.0,81,0.00,CLR,,0.00,WeatherDisplay:10.37,2013-11-28 02:36:00,
2013-11-27 21:41:00,19.2,14.3,30.08,NNE,24,0.0,0.0,81,0.00,CLR,,0.00,WeatherDisplay:10.37,2013-11-28 02:41:00,
2013-11-27 21:46:00,19.2,14.3,30.08,NNE,24,0.0,0.0,81,0.00,CLR,,0.00,WeatherDisplay:10.37,2013-11-28 02:46:00,
2013-11-27 21:51:00,19.2,14.3,30.09,NNE,24,0.0,0.0,81,0.00,CLR,,0.00,WeatherDisplay:10.37,2013-11-28 02:51:00,
2013-11-27 21:56:00,19.2,14.3,30.09,NNE,24,0.0,0.0,81,0.00,CLR,,0.00,WeatherDisplay:10.37,2013-11-28 02:56:00,
2013-11-27 22:01:00,19.2,14.3,30.09,NNE,24,0.0,0.0,81,0.00,CLR,,0.00,WeatherDisplay:10.37,2013-11-28 03:01:00,
2013-11-27 22:06:00,19.2,14.3,30.09,NNE,22,0.0,0.0,81,0.00,CLR,,0.00,WeatherDisplay:10.37,2013-11-28 03:06:00,
2013-11-27 22:11:00,19.2,14.3,30.10,NNE,22,0.0,0.0,81,0.00,CLR,,0.00,WeatherDisplay:10.37,2013-11-28 03:11:00,
2013-11-27 22:16:00,19.2,14.3,30.09,NNE,22,0.0,0.0,81,0.00,CLR,,0.00,WeatherDisplay:10.37,2013-11-28 03:16:00,
2013-11-27 22:21:00,19.2,14.3,30.09,NNE,22,0.0,0.0,81,0.00,CLR,,0.00,WeatherDisplay:10.37,2013-11-28 03:21:00,
2013-11-27 22:26:00,19.2,14.3,30.09,NNE,24,0.0,0.0,81,0.00,CLR,,0.00,WeatherDisplay:10.37,2013-11-28 03:26:00,
2013-11-27 22:31:00,19.2,14.3,30.09,NNE,24,0.0,0.0,81,0.00,CLR,,0.00,WeatherDisplay:10.37,2013-11-28 03:31:00,
2013-11-27 22:36:00,19.4,14.5,30.10,NNE,22,0.0,0.0,81,0.00,CLR,,0.00,WeatherDisplay:10.37,2013-11-28 03:36:00,
2013-11-27 22:41:00,19.4,14.5,30.10,NNE,22,0.0,0.0,81,0.00,CLR,,0.00,WeatherDisplay:10.37,2013-11-28 03:41:00,
2013-11-27 22:46:00,19.4,14.5,30.10,NNE,22,0.0,0.0,81,0.00,CLR,,0.00,WeatherDisplay:10.37,2013-11-28 03:46:00,
2013-11-27 22:51:00,19.4,14.5,30.11,NNE,22,0.0,0.0,81,0.00,CLR,,0.00,WeatherDisplay:10.37,2013-11-28 03:51:00,
2013-11-27 22:56:00,19.4,14.5,30.11,NNE,22,0.0,0.0,81,0.00,CLR,,0.00,WeatherDisplay:10.37,2013-11-28 03:56:00,
2013-11-27 23:01:00,19.4,14.5,30.11,NNE,24,0.0,0.0,81,0.00,CLR,,0.00,WeatherDisplay:10.37,2013-11-28 04:01:00,
2013-11-27 23:06:00,19.4,14.5,30.11,NNE,24,0.0,0.0,81,0.00,CLR,,0.00,WeatherDisplay:10.37,2013-11-28 04:06:00,
2013-11-27 23:11:00,19.4,14.8,30.11,NNE,22,0.0,0.0,82,0.00,CLR,,0.00,WeatherDisplay:10.37,2013-11-28 04:11:00,
2013-11-27 23:16:00,19.2,14.6,30.11,NNE,22,0.0,0.0,82,0.00,CLR,,0.00,WeatherDisplay:10.37,2013-11-28 04:16:00,
2013-11-27 23:21:00,19.2,14.6,30.11,NNE,22,0.0,0.0,82,0.00,CLR,,0.00,WeatherDisplay:10.37,2013-11-28 04:21:00,
2013-11-27 23:26:00,19.2,14.6,30.12,NNE,22,0.0,0.0,82,0.00,CLR,,0.00,WeatherDisplay:10.37,2013-11-28 04:26:00,
2013-11-27 23:31:00,19.2,14.6,30.12,NNE,22,0.0,0.0,82,0.00,CLR,,0.00,WeatherDisplay:10.37,2013-11-28 04:31:00,
2013-11-27 23:36:00,19.2,14.9,30.13,NNE,22,0.0,0.0,83,0.00,CLR,,0.00,WeatherDisplay:10.37,2013-11-28 04:36:00,
2013-11-27 23:42:00,19.2,14.9,30.13,NNE,22,0.0,0.0,83,0.00,CLR,,0.00,WeatherDisplay:10.37,2013-11-28 04:42:00,
2013-11-27 23:47:00,19.2,14.9,30.13,NNE,24,0.0,0.0,83,0.00,CLR,,0.00,WeatherDisplay:10.37,2013-11-28 04:47:00,
2013-11-27 23:52:00,19.2,14.9,30.13,NNE,24,0.0,0.0,83,0.00,CLR,,0.00,WeatherDisplay:10.37,2013-11-28 04:52:00,
2013-11-27 23:57:00,19.2,14.9,30.13,NNE,24,0.0,0.0,83,0.00,CLR,,0.00,WeatherDisplay:10.37,2013-11-28 04:57:00,